Location: Azat
(46.0765°N, 1.7600°E)
Time: 03:34:43
(UTC+00:00)

STARLINK-1189 - Pass Details

Date: 09 April 2020
Orbit: 378 x 381 km, 53.0° (Epoch: 02 June)

Event Time Altitude Azimuth Distance (km) Brightness Sun altitude
Rises 19:46:47 0° 301° (WNW) 2,263 8.8 -12.9°
Reaches altitude 10° 19:48:51 10° 302° (WNW) 1,406 7.2 -13.2°
Maximum altitude 19:51:59 82° 31° (NNE) 390 2.8 -13.7°
Enters shadow 19:53:22 30° 116° (ESE) 708 3.6 -13.9°
